Weather History for Quillayute, WA

Change the Weather History Date:

Thursday, September 5, 2013

  Actual Average Record
Temperature  
Mean Temperature 66 °F 58 °F  
Max Temperature 78 °F 68 °F 87 °F (2014)
Min Temperature 54 °F 49 °F 40 °F (1998)
Degree Days  
Heating Degree Days 0 7  
Month to date heating degree days 3 34  
Since 1 July heating degree days 175 403  
Cooling Degree Days 1 0  
Month to date cooling degree days 1 0  
Year to date cooling degree days 26 17  
Growing Degree Days 16 (Base 50)    
Moisture  
Dew Point 55 °F    
Average Humidity 74    
Maximum Humidity 93    
Minimum Humidity 54    
Precipitation  
Precipitation 0.01 in 0.11 in 1.37 in (1970)
Month to date precipitation 0.04 0.52  
Year to date precipitation 61.86 57.24  
Sea Level Pressure  
Sea Level Pressure 30.02 in    
Wind  
Wind Speed 4 mph (NNW)    
Max Wind Speed 13 mph    
Max Gust Speed 16 mph    
Visibility 4 miles    
Events Fog , Rain    
T = Trace of Precipitation, MM = Missing Value Source: NWS Daily Summary

Daily Weather History Graph

Daily Weather History Graph

Search for Another Location

Airport:

Trip Planner

Search our weather history database for the weather conditions in past years. The results will help you decide how hot, cold, wet, or windy it might be!

Date:

Astronomy

Sep. 05, 2013 Rise Set
Actual Time 6:42 AM PDT 7:50 PM PDT
Civil Twilight 6:10 AM PDT 8:22 PM PDT
Nautical Twilight 5:32 AM PDT 9:00 PM PDT
Astronomical Twilight 4:51 AM PDT 9:40 PM PDT
Moon 7:04 AM PDT (9/5) 7:37 PM PDT (9/5)
Length of Visible Light 14h 11m
Length of Day
13h 08m
New Moon, 0% of the Moon is Illuminated
Sep 5
New Moon
Sep 12
First Quarter
Sep 19
Full
Sep 26
Last Quarter
Oct 4
New

Hourly Weather History & Observations

Time (PDT) Temp. Dew Point Humidity Pressure Visibility Wind Dir Wind Speed Gust Speed Precip Events Conditions
12:53 AM 57.9 °F 54.0 °F 87% 30.06 in 6.0 mi Calm Calm - N/A   Mostly Cloudy
1:06 AM 57.2 °F 53.6 °F 88% 30.06 in 2.5 mi NE 3.5 mph - N/A   Mostly Cloudy
1:10 AM 57.2 °F 53.6 °F 88% 30.06 in 1.2 mi ENE 4.6 mph - N/A   Mostly Cloudy
1:12 AM 57.2 °F 53.6 °F 88% 30.06 in 0.8 mi ENE 3.5 mph - N/A   Mostly Cloudy
1:24 AM 57.2 °F 53.6 °F 88% 30.05 in 0.5 mi Calm Calm - N/A Fog Fog
1:41 AM 57.2 °F 55.4 °F 94% 30.05 in 0.2 mi East 5.8 mph - N/A Fog Fog
1:53 AM 57.9 °F 55.0 °F 90% 30.05 in 0.2 mi East 3.5 mph - N/A Fog Fog
2:02 AM 57.2 °F 53.6 °F 88% 30.04 in 0.5 mi Calm Calm - N/A Fog Fog
2:11 AM 57.2 °F 53.6 °F 88% 30.05 in 0.2 mi Calm Calm - N/A Fog Fog
2:17 AM 57.2 °F 53.6 °F 88% 30.04 in 0.8 mi Calm Calm - N/A   Mist
2:20 AM 55.4 °F 53.6 °F 94% 30.04 in 1.5 mi Calm Calm - N/A   Mostly Cloudy
2:23 AM 55.4 °F 51.8 °F 88% 30.04 in 0.8 mi Calm Calm - N/A   Mist
2:39 AM 55.4 °F 53.6 °F 94% 30.04 in 1.0 mi Calm Calm - N/A   Mist
2:45 AM 55.4 °F 53.6 °F 94% 30.04 in 0.8 mi Calm Calm - N/A   Mist
2:51 AM 55.4 °F 53.6 °F 94% 30.03 in 1.5 mi Calm Calm - N/A   Mostly Cloudy
2:52 AM 55.9 °F 53.1 °F 90% 30.03 in 1.8 mi Calm Calm - N/A   Mostly Cloudy
2:59 AM 55.4 °F 51.8 °F 88% 30.03 in 2.5 mi NNW 3.5 mph - N/A   Mostly Cloudy
3:09 AM 55.4 °F 51.8 °F 88% 30.03 in 3.0 mi Calm Calm - N/A   Scattered Clouds
3:15 AM 55.4 °F 51.8 °F 88% 30.02 in 1.8 mi Calm Calm - N/A   Partly Cloudy
3:17 AM 55.4 °F 51.8 °F 88% 30.02 in 1.0 mi Calm Calm - N/A   Mist
3:24 AM 55.4 °F 51.8 °F 88% 30.01 in 0.8 mi NNW 3.5 mph - N/A   Mist
3:27 AM 55.4 °F 51.8 °F 88% 30.01 in 1.5 mi NNW 3.5 mph - N/A   Partly Cloudy
3:29 AM 55.4 °F 51.8 °F 88% 30.02 in 3.0 mi Calm Calm - N/A   Partly Cloudy
3:50 AM 55.4 °F 51.8 °F 88% 30.03 in 1.5 mi ESE 4.6 mph - N/A   Scattered Clouds
3:53 AM 55.0 °F 52.0 °F 89% 30.03 in 1.0 mi ESE 3.5 mph - N/A   Mist
4:01 AM 55.4 °F 51.8 °F 88% 30.03 in 0.5 mi Calm Calm - N/A Fog Fog
4:08 AM 55.4 °F 53.6 °F 94% 30.03 in 0.2 mi Calm Calm - N/A Fog Fog
4:53 AM 55.0 °F 52.0 °F 89% 30.04 in 0.5 mi Calm Calm - N/A Fog Fog
4:58 AM 55.4 °F 51.8 °F 88% 30.05 in 1.5 mi Calm Calm - N/A   Mostly Cloudy
5:01 AM 55.4 °F 51.8 °F 88% 30.05 in 3.0 mi Calm Calm - N/A   Mostly Cloudy
5:06 AM 55.4 °F 53.6 °F 94% 30.05 in 1.8 mi Calm Calm - N/A   Mostly Cloudy
5:15 AM 55.4 °F 53.6 °F 94% 30.04 in 3.0 mi Calm Calm - N/A   Mostly Cloudy
5:53 AM 55.9 °F 53.1 °F 90% 30.04 in 6.0 mi Calm Calm - N/A   Scattered Clouds
6:53 AM 57.0 °F 54.0 °F 89% 30.01 in 8.0 mi Calm Calm - 0.00 in   Mostly Cloudy
7:06 AM 57.2 °F 53.6 °F 88% 30.02 in 7.0 mi Calm Calm - 0.01 in   Scattered Clouds
7:53 AM 57.9 °F 55.0 °F 90% 30.04 in 6.0 mi Calm Calm - 0.01 in   Scattered Clouds
8:53 AM 62.1 °F 57.0 °F 84% 30.04 in 7.0 mi West 5.8 mph - N/A   Clear
9:43 AM 62.6 °F 57.2 °F 82% 30.05 in 6.0 mi ESE 5.8 mph - N/A   Mostly Cloudy
9:53 AM 62.1 °F 57.9 °F 86% 30.04 in 7.0 mi Calm Calm - N/A   Overcast
10:53 AM 64.9 °F 59.0 °F 81% 30.04 in 8.0 mi Calm Calm - N/A   Clear
11:53 AM 68.0 °F 60.1 °F 76% 30.04 in 8.0 mi Calm Calm - N/A   Partly Cloudy
12:53 PM 68.0 °F 61.0 °F 78% 30.00 in 7.0 mi North 3.5 mph - 0.00 in Rain Light Rain
1:53 PM 71.1 °F 62.1 °F 73% 30.00 in 7.0 mi West 5.8 mph - 0.00 in   Clear
2:53 PM 77.0 °F 62.1 °F 60% 29.99 in 8.0 mi WNW 8.1 mph - N/A   Clear
3:53 PM 77.0 °F 59.0 °F 54% 29.98 in 9.0 mi WNW 10.4 mph - N/A   Clear
4:53 PM 75.9 °F 59.0 °F 56% 29.96 in 10.0 mi NW 8.1 mph - N/A   Clear
5:53 PM 75.0 °F 59.0 °F 57% 29.96 in 10.0 mi NNW 9.2 mph - N/A   Clear
6:53 PM 72.0 °F 57.9 °F 61% 29.96 in 10.0 mi NW 8.1 mph - N/A   Clear
7:53 PM 66.0 °F 55.9 °F 70% 29.97 in 9.0 mi NW 4.6 mph - N/A   Clear
8:53 PM 62.1 °F 55.9 °F 80% 29.96 in 10.0 mi West 5.8 mph - N/A   Clear
9:53 PM 61.0 °F 55.0 °F 81% 29.97 in 10.0 mi NE 3.5 mph - N/A   Clear
10:53 PM 59.0 °F 54.0 °F 83% 29.97 in 9.0 mi Calm Calm - N/A   Clear
11:39 PM 57.2 °F 53.6 °F 88% 29.95 in 8.0 mi West 4.6 mph - N/A   Scattered Clouds
11:53 PM 60.1 °F 55.9 °F 86% 29.94 in 7.0 mi West 6.9 mph - N/A   Mostly Cloudy